EW3608 Weather Reports


time (UTC)temp
C
wind
direction
speed
KPH
gust
KPH
rain 1hr
cm
rain 24hr
cm
rain mn
cm
humidity
%
barometer
mb
20260506094524 0 337 0.0 0.0 0.00 1.02 0.03 95 1017.5
20260506094008 0 337 0.0 0.0 0.00 1.04 0.03 95 1017.5
20260506093509 0 337 0.0 0.0 0.00 1.07 0.03 95 1017.6
20260506093038 0 337 0.0 0.0 0.00 1.09 0.03 95 1017.3
20260506092504 0 337 0.0 0.0 0.00 1.14 0.03 95 1017.3
20260506092011 0 337 0.0 0.0 0.03 1.19 0.03 95 1017.3
20260506091514 0 338 0.0 0.0 0.03 1.22 0.03 95 1017.3
20260506091005 0 327 0.0 0.0 0.03 1.22 0.03 95 1017.1
20260506090507 0 327 0.0 0.0 0.03 1.22 0.03 95 1017.3
20260506090026 0 329 0.0 0.0 0.03 1.22 0.03 95 1017.3
20260506085507 0 321 0.0 0.0 0.03 1.22 0.03 95 1017.3
20260506085007 0 315 0.0 0.0 0.03 1.22 0.03 95 1017.3
20260506084505 0 313 0.0 0.0 0.03 1.22 0.03 95 1017.4
20260506084004 0 318 0.0 0.0 0.03 1.22 0.03 95 1017.4
20260506083508 0 310 0.0 3.2 0.03 1.22 0.03 95 1017.3
20260506083017 0 315 0.0 3.2 0.03 1.22 0.03 95 1017.3
20260506082508 0 333 0.0 3.2 0.03 1.22 0.03 95 1017.4
20260506082011 0 320 0.0 3.2 0.00 1.19 0.00 95 1017.3
20260506081533 0 321 0.0 3.2 0.00 1.19 0.00 95 1017.3
20260506081007 0 310 0.0 3.2 0.00 1.19 0.00 95 1017.3
20260506080503 0 322 0.0 3.2 0.00 1.19 0.00 95 1017.3
20260506073511 0 321 1.6 3.2 0.00 1.22 0.00 95 1017.8
20260506073038 0 323 0.0 3.2 0.00 1.22 0.00 95 1017.5
20260506072504 0 360 1.6 3.2 0.00 1.22 0.00 95 1017.3
20260506072006 0 350 1.6 3.2 0.00 1.22 0.00 95 1017.3
20260506071514 0 344 1.6 3.2 0.00 1.22 0.00 95 1017.3
20260506071013 0 352 1.6 4.8 0.00 1.22 0.00 95 1017.3
20260506070508 0 326 0.0 4.8 0.00 1.22 0.00 95 1017.4
20260506062507 0 334 0.0 0.0 0.00 1.22 0.00 95 1017.1
20260506062009 0 334 0.0 0.0 0.00 1.22 0.00 95 1016.8
20260506061524 0 334 0.0 0.0 0.00 1.22 0.00 95 1016.8
20260506061010 0 333 0.0 0.0 0.00 1.22 0.00 95 1016.8
20260506060511 0 335 0.0 0.0 0.00 1.22 0.00 95 1016.8
20260506051007 0 271 0.0 0.0 0.03 1.22 1.22 95 1016.6
20260506050506 0 271 0.0 0.0 0.03 1.22 1.22 95 1016.6
20260506045012 0 271 0.0 0.0 0.03 1.22 1.22 95 1016.3
20260506044557 0 265 0.0 0.0 0.03 1.22 1.22 95 1016.2
20260506044006 0 265 0.0 0.0 0.03 1.22 1.22 95 1016.1
20260506043506 0 265 0.0 0.0 0.03 1.22 1.22 95 1016.3
20260506043021 0 265 0.0 0.0 0.03 1.22 1.22 95 1016.4
20260506042509 0 265 0.0 0.0 0.00 1.19 1.19 95 1016.5
20260506042016 0 265 0.0 0.0 0.00 1.19 1.19 95 1016.4
20260506041524 0 265 0.0 0.0 0.00 1.19 1.19 95 1016.4
20260506041012 0 303 0.0 0.0 0.00 1.19 1.19 95 1016.6
20260506040511 0 343 0.0 0.0 0.00 1.19 1.19 95 1016.4
20260506040010 0 344 0.0 1.6 0.00 1.19 1.19 95 1016.3
20260506035505 0 360 0.0 1.6 0.00 1.19 1.19 95 1016.1
20260506035006 0 338 0.0 0.0 0.00 1.19 1.19 95 1016.1
20260506034542 0 338 0.0 0.0 0.00 1.19 1.19 95 1016.3
20260506034008 0 338 0.0 0.0 0.00 1.19 1.19 95 1016.3
20260506033512 0 338 0.0 0.0 0.00 1.22 1.19 95 1016.3
20260506033032 0 338 0.0 0.0 0.00 1.22 1.19 95 1016.2
20260506032509 0 338 0.0 1.6 0.00 1.22 1.19 95 1016.2
20260506032007 0 338 0.0 3.2 0.00 1.22 1.19 95 1016.3
20260506031516 0 337 0.0 4.8 0.00 1.22 1.19 95 1016.1
20260506031007 0 342 1.6 4.8 0.00 1.24 1.19 95 1015.9
20260506030509 0 341 1.6 3.2 0.00 1.27 1.19 94 1015.8
20260506030026 0 345 0.0 3.2 0.00 1.30 1.19 94 1015.7
20260506025507 0 17 0.0 3.2 0.00 1.32 1.19 94 1015.6
20260506025011 0 337 1.6 3.2 0.00 1.42 1.19 94 1015.6
20260506024529 0 330 0.0 3.2 0.00 1.47 1.19 94 1015.5
20260506024009 0 322 0.0 3.2 0.00 1.55 1.19 94 1015.3
20260506023509 0 317 0.0 0.0 0.00 1.60 1.19 94 1015.3
20260506023020 0 317 0.0 0.0 0.00 1.65 1.19 94 1015.1
20260506022509 0 317 0.0 0.0 0.00 1.70 1.19 94 1015.0
20260506022011 0 317 0.0 1.6 0.00 1.73 1.19 94 1014.9
20260506021530 0 317 0.0 1.6 0.00 1.73 1.19 94 1014.8
20260506021010 0 327 0.0 1.6 0.00 1.73 1.19 94 1014.8
20260506020510 0 329 0.0 1.6 0.00 1.73 1.19 94 1014.9
20260506020028 0 342 0.0 1.6 0.00 1.73 1.19 94 1014.5
20260506015508 0 338 0.0 3.2 0.00 1.75 1.19 94 1014.5
20260506015011 0 346 0.0 3.2 0.00 1.75 1.19 94 1014.5
20260506014528 0 326 0.0 3.2 0.00 1.75 1.19 94 1014.6
20260506014008 0 335 0.0 3.2 0.00 1.75 1.19 94 1014.5
20260506013509 0 334 0.0 4.8 0.00 1.75 1.19 94 1014.6
20260506013029 0 336 0.0 4.8 0.00 1.75 1.19 94 1014.3
20260506012507 0 336 1.6 3.2 0.00 1.75 1.19 94 1014.1
20260506012013 0 350 0.0 3.2 0.00 1.75 1.19 94 1014.2
20260506011520 0 352 0.0 4.8 0.00 1.75 1.19 94 1014.4
20260506011009 0 352 0.0 4.8 0.00 1.75 1.19 94 1014.2
20260506010507 0 329 0.0 3.2 0.00 1.75 1.19 94 1014.1
20260506010027 0 340 0.0 3.2 0.00 1.75 1.19 94 1014.1
20260506005508 0 327 0.0 3.2 0.00 1.75 1.19 94 1014.2
20260506005010 0 346 0.0 3.2 0.00 1.75 1.19 94 1014.0
20260506004553 0 339 0.0 3.2 0.00 1.75 1.19 94 1014.0
20260506004007 0 344 0.0 3.2 0.00 1.75 1.19 94 1014.0
20260506003511 0 344 0.0 3.2 0.00 1.75 1.19 94 1014.0
20260506003036 0 342 0.0 3.2 0.00 1.75 1.19 94 1014.0
20260506002511 0 328 0.0 4.8 0.00 1.75 1.19 94 1014.2
20260506002003 0 342 0.0 4.8 0.00 1.75 1.19 94 1014.1
20260506001506 0 342 1.6 6.4 0.00 1.75 1.19 94 1014.1
20260506001004 0 331 1.6 6.4 0.00 1.75 1.19 94 1014.1
20260506000507 0 336 0.0 4.8 0.00 1.75 1.19 94 1013.9
20260506000014 0 352 1.6 4.8 0.00 1.75 1.19 94 1013.9
20260505235508 0 349 0.0 3.2 0.00 1.75 1.19 94 1014.0
20260505235009 0 345 0.0 3.2 0.00 1.75 1.19 94 1014.0
20260505234536 0 268 0.0 3.2 0.00 1.75 1.19 94 1013.8
20260505234004 0 234 0.0 4.8 0.00 1.75 1.19 94 1013.9
20260505233506 0 344 1.6 4.8 0.00 1.75 1.19 94 1013.9
20260505233009 0 265 1.6 4.8 0.00 1.75 1.19 94 1013.7
20260505232506 0 352 0.0 3.2 0.00 1.75 1.19 94 1013.6
20260505232007 0 327 0.0 6.4 0.00 1.75 1.19 94 1013.6
20260505231520 0 5 1.6 6.4 0.03 1.75 1.19 94 1013.6
20260505231009 0 360 1.6 6.4 0.03 1.75 1.19 94 1013.7
20260505230509 0 347 1.6 4.8 0.03 1.75 1.19 94 1013.7
20260505230006 0 332 1.6 6.4 0.03 1.75 1.19 94 1013.8
20260505225503 0 350 0.0 6.4 0.03 1.75 1.19 93 1013.8
20260505225004 0 317 3.2 8.0 0.05 1.75 1.19 93 1013.7
20260505224512 0 349 1.6 8.0 0.05 1.75 1.19 93 1013.9
20260505224009 0 291 1.6 6.4 0.05 1.75 1.19 93 1013.9
20260505223511 0 343 1.6 8.0 0.05 1.75 1.19 93 1013.9
20260505223023 0 325 3.2 8.0 0.05 1.75 1.19 93 1013.6
20260505222510 0 331 4.8 8.0 0.05 1.75 1.19 93 1013.5
20260505222003 0 340 1.6 8.0 0.05 1.75 1.19 93 1013.1
20260505221507 0 352 4.8 12.9 0.03 1.73 1.17 93 1013.1
20260505221003 0 30 3.2 12.9 0.03 1.73 1.17 92 1013.0
20260505220508 1 332 4.8 8.0 0.05 1.73 1.17 92 1013.7
20260505220024 1 360 1.6 12.9 0.05 1.73 1.17 92 1013.6
20260505215508 1 342 4.8 12.9 0.05 1.73 1.17 92 1013.3
20260505215010 1 351 3.2 19.3 0.03 1.70 1.14 92 1013.0
20260505214531 1 29 6.4 19.3 0.03 1.70 1.14 92 1012.9
20260505214003 1 352 4.8 20.9 0.03 1.70 1.14 93 1012.8
20260505213503 1 313 9.7 20.9 0.03 1.70 1.14 93 1012.9
20260505213008 1 42 6.4 16.1 0.05 1.70 1.14 93 1012.9
20260505212512 1 59 3.2 19.3 0.05 1.70 1.14 93 1013.0
20260505212015 1 325 4.8 19.3 0.08 1.70 1.14 92 1013.1
20260505211520 1 352 6.4 14.5 0.08 1.70 1.14 92 1013.2
20260505211008 1 54 1.6 19.3 0.10 1.70 1.14 92 1013.4
20260505210511 1 25 6.4 19.3 0.10 1.68 1.12 90 1013.4
20260505210028 2 5 4.8 19.3 0.10 1.68 1.12 89 1013.4
20260505205505 2 78 9.7 19.3 0.10 1.68 1.12 91 1013.1
20260505205007 3 352 4.8 9.7 0.10 1.68 1.12 93 1012.9
20260505204514 2 315 1.6 8.0 0.10 1.68 1.12 93 1013.0
20260505204011 2 333 1.6 8.0 0.10 1.68 1.12 92 1013.2
20260505203507 2 352 1.6 8.0 0.10 1.68 1.12 92 1013.3
20260505203025 2 5 1.6 8.0 0.08 1.65 1.09 92 1013.4
20260505202510 2 351 1.6 8.0 0.08 1.65 1.09 92 1013.5
20260505202016 2 335 3.2 4.8 0.05 1.63 1.07 92 1013.7
20260505201511 2 296 1.6 9.7 0.05 1.63 1.07 91 1013.7
20260505201004 2 338 3.2 9.7 0.03 1.60 1.04 91 1013.6
20260505200507 2 342 3.2 6.4 0.00 1.57 1.02 92 1013.8
20260505200020 2 9 3.2 6.4 0.03 1.57 1.02 92 1014.0
20260505195507 2 317 3.2 6.4 0.03 1.57 1.02 91 1013.9
20260505195016 2 29 4.8 6.4 0.03 1.57 1.02 92 1013.6
20260505194534 2 5 1.6 6.4 0.03 1.57 1.02 92 1013.6
20260505194010 2 319 1.6 8.0 0.05 1.57 1.02 92 1013.6
20260505193504 2 15 3.2 8.0 0.05 1.57 1.02 92 1013.8
20260505193031 2 38 1.6 4.8 0.05 1.57 1.02 92 1013.9
20260505192507 2 333 3.2 6.4 0.08 1.57 1.02 92 1013.9
20260505192009 2 45 1.6 6.4 0.08 1.57 1.02 92 1013.9
20260505191532 2 33 3.2 4.8 0.08 1.57 1.02 92 1013.8
20260505191014 2 349 1.6 4.8 0.10 1.57 1.02 92 1013.6
20260505190511 2 302 0.0 3.2 0.10 1.57 1.02 93 1013.7
20260505190029 2 352 0.0 4.8 0.10 1.55 0.99 93 1013.7
20260505185504 2 350 1.6 4.8 0.13 1.55 0.99 92 1013.8
20260505185004 2 340 1.6 3.2 0.15 1.55 0.99 92 1013.8
20260505184514 2 19 1.6 3.2 0.15 1.55 0.99 92 1013.9
20260505184011 2 32 0.0 3.2 0.13 1.52 0.97 92 1014.0
20260505183511 2 40 1.6 3.2 0.13 1.52 0.97 93 1013.8
20260505183029 2 32 0.0 3.2 0.15 1.52 0.97 92 1013.9
20260505182510 2 344 0.0 4.8 0.13 1.47 0.94 92 1014.2
20260505182013 1 344 0.0 4.8 0.13 1.47 0.94 92 1014.4
20260505181508 2 28 1.6 4.8 0.13 1.47 0.94 92 1014.5
20260505181006 2 324 1.6 4.8 0.10 1.47 0.91 91 1014.5
20260505180510 2 351 0.0 3.2 0.10 1.47 0.91 91 1014.5
20260505180029 2 330 0.0 3.2 0.08 1.45 0.89 92 1014.5
20260505175510 2 331 1.6 4.8 0.05 1.42 0.86 93 1014.4
20260505175011 2 24 1.6 4.8 0.03 1.40 0.84 93 1014.5
20260505174537 2 37 0.0 3.2 0.03 1.40 0.84 93 1014.5
20260505174011 2 327 0.0 4.8 0.05 1.40 0.84 93 1014.5
20260505173504 2 352 1.6 6.4 0.05 1.40 0.84 92 1014.5
20260505173016 2 17 1.6 6.4 0.03 1.37 0.81 92 1014.7
20260505172509 2 333 0.0 4.8 0.03 1.37 0.81 93 1014.8
20260505172012 2 348 1.6 4.8 0.03 1.37 0.81 93 1014.8
20260505171529 2 325 1.6 8.0 0.03 1.37 0.81 93 1014.9
20260505171007 2 349 4.8 8.0 0.05 1.37 0.81 92 1015.1
20260505170510 2 348 0.0 4.8 0.05 1.37 0.81 93 1015.2
20260505170032 2 352 1.6 4.8 0.05 1.37 0.81 93 1015.1
20260505165503 2 9 0.0 3.2 0.05 1.37 0.81 93 1015.0
20260505165007 2 342 0.0 3.2 0.05 1.37 0.81 94 1014.9
20260505164520 2 30 0.0 3.2 0.08 1.37 0.81 93 1015.0
20260505164010 2 15 1.6 3.2 0.05 1.32 0.79 94 1015.0
20260505163510 2 17 0.0 4.8 0.05 1.32 0.79 93 1015.0
20260505163026 2 22 0.0 4.8 0.08 1.32 0.79 93 1015.0
20260505162510 2 347 0.0 4.8 0.08 1.32 0.79 94 1015.0
20260505162014 1 338 3.2 4.8 0.08 1.32 0.79 93 1015.0
20260505161529 1 324 1.6 4.8 0.10 1.32 0.79 94 1015.1
20260505161007 1 349 1.6 6.4 0.08 1.32 0.76 94 1015.2
20260505160508 1 56 1.6 6.4 0.08 1.32 0.76 94 1015.3
20260505153004 1 5 0.0 3.2 0.10 1.27 0.71 94 1015.4
20260505152504 1 22 1.6 3.2 0.13 1.27 0.71 94 1015.4
20260505152006 1 13 0.0 3.2 0.13 1.27 0.71 94 1015.5
20260505151503 1 39 1.6 3.2 0.13 1.24 0.69 94 1015.6
20260505151003 1 18 1.6 3.2 0.13 1.24 0.69 94 1015.6
20260505150503 1 59 0.0 3.2 0.15 1.24 0.69 94 1015.5
20260505140505 1 337 0.0 3.2 0.08 1.09 0.53 94 1015.6
20260505125003 0 269 0.0 3.2 0.05 1.02 0.46 93 1014.7
20260505124507 0 275 0.0 3.2 0.05 1.02 0.46 93 1014.7
20260505124003 0 261 0.0 3.2 0.05 1.02 0.46 93 1014.7
20260505123502 0 324 0.0 3.2 0.08 1.02 0.46 93 1014.7
20260505123004 0 316 0.0 3.2 0.05 0.99 0.43 93 1014.7
20260505122502 0 319 0.0 3.2 0.05 0.99 0.43 92 1014.7
20260505122002 1 338 0.0 3.2 0.08 0.99 0.43 92 1014.7
20260505121504 1 338 0.0 3.2 0.08 0.99 0.43 92 1014.7
20260505121003 1 327 0.0 6.4 0.08 0.99 0.43 92 1014.6
20260505120504 1 338 1.6 8.0 0.08 0.99 0.43 92 1014.5
20260505120006 1 352 1.6 8.0 0.08 0.99 0.43 92 1014.5
20260505115507 1 303 1.6 6.4 0.08 0.99 0.43 92 1014.4
20260505115003 1 32 3.2 9.7 0.08 0.97 0.41 92 1014.3
20260505114505 1 351 1.6 9.7 0.08 0.97 0.41 91 1014.3
20260505114003 1 325 0.0 8.0 0.08 0.97 0.41 92 1014.3
20260505113502 1 337 1.6 8.0 0.08 0.94 0.38 92 1014.2
20260505113005 2 26 3.2 8.0 0.08 0.94 0.38 92 1014.2
20260505112504 2 5 0.0 12.9 0.10 0.94 0.38 91 1014.1
20260505112001 2 16 6.4 11.3 0.08 0.91 0.36 91 1014.0
20260505111507 2 25 1.6 14.5 0.08 0.91 0.36 92 1014.0
20260505111002 2 330 3.2 14.5 0.08 0.91 0.36 91 1014.0
20260505110503 2 15 4.8 12.9 0.08 0.91 0.36 91 1014.0
20260505102003 4 360 4.8 20.9 0.23 0.84 0.28 90 1013.5
20260505101508 4 287 4.8 14.5 0.25 0.84 0.28 89 1013.5
20260505101004 4 360 6.4 14.5 0.25 0.84 0.28 89 1013.4
20260505100505 5 20 4.8 9.7 0.25 0.84 0.28 90 1013.3
20260505100008 5 343 4.8 12.9 0.25 0.84 0.28 90 1013.2
20260505095502 5 351 3.2 12.9 0.23 0.81 0.25 90 1013.1
20260505095002 5 360 1.6 14.5 0.23 0.81 0.25 90 1013.1